[[{"header":{"parameterUnit":"m.s-1","parameterCategory":1,"la1":30.2991,"la2":30.254,"lo1":-89.0895,"lo2":-89.0444,"dy":0.0017,"dx":0.0017,"nx":28,"ny":28,"refTime":"2025-07-28T21:00:00:Z","depth":0,"parameterNumber":2,"parameterNumberName":"U-component_of_WINDS"},"data":[0,0,0,0,0,0,0,0,0,0,0,0,0,0,0,0,0,0,0,0,0,0,0,0,0,0,0,0,0,0,0,0,0,0,0,0,0,0,0,0,0,0,0,0,0,0,0,0,0,0,0,0,0,0,0,0,0,0,2.9553,2.9554,0,2.9608,2.9609,2.9609,2.9519,2.9516,2.9513,2.951,2.9569,2.9574,2.9578,0,0,0,0,0,0,0,0,0,0,0,0,0,2.9375,2.9379,2.9553,2.9554,2.9555,2.9608,2.9609,2.961,2.952,2.9516,2.9512,2.9509,2.9568,2.9573,2.9579,0,0,0,0,0,0,0,0,0,0,0,0,0,2.9444,2.938,2.9553,2.9516,2.9514,2.9608,2.9609,2.961,2.9521,2.9516,2.9511,2.9507,2.9566,2.9573,2.9579,2.9713,0,0,2.96,2.9603,0,0,0,0,0,0,0,0,2.944,2.945,2.9521,2.9519,2.9516,2.9552,2.9568,2.9645,2.9522,2.9518,2.951,2.9505,2.9568,2.9574,2.9594,2.9716,2.9719,2.96,2.9604,2.9607,2.9609,0,0,0,0,0,0,0,2.9435,2.9447,2.9575,2.9522,2.9519,2.9498,2.9503,2.9582,2.9568,2.9518,2.9512,2.9519,2.9565,2.9588,2.9595,2.972,2.96,2.9606,2.961,2.9613,2.9956,2.9961,0,0,0,0,0,0,2.9434,2.9444,2.9573,2.9577,2.9466,2.9505,2.951,2.9545,2.9567,2.9566,2.9523,2.9515,2.9579,2.9588,2.9597,2.9756,2.9607,2.9614,2.9617,2.9951,2.9957,2.9962,0,0,0,0,0,0,2.9431,2.9447,2.9571,2.9509,2.9523,2.9513,2.9553,2.9549,2.9571,2.9571,2.9568,2.9549,2.9576,2.9588,2.9685,2.9757,2.9617,2.9623,2.9945,2.9953,2.996,3.0076,0,0,0,0,0,0,2.9426,2.9446,2.9496,2.951,2.9527,2.9658,2.9558,2.9553,2.9583,2.9573,2.9594,2.9593,2.9573,2.9676,2.9692,2.9764,2.9628,2.9938,2.9948,2.9957,3.0065,3.0086,3.0104,0,0,0,0,0,2.942,2.9527,2.9499,2.9515,2.9588,2.9662,2.9671,2.9645,2.9589,2.964,2.964,2.9593,2.9747,2.9687,2.9704,2.9779,2.9934,2.9945,2.9957,3.0057,3.0082,3.0104,0,0,0,0,0,0,2.9521,2.9528,2.9497,2.9611,2.9637,2.9647,2.9709,2.9673,2.9715,2.9704,2.967,2.9676,2.9781,2.979,2.9723,2.9911,2.9831,2.9846,2.9901,2.9925,2.9945,2.9941,2.9633,0,0,0,0,0,2.9557,2.9615,2.9618,2.9718,2.9733,2.9719,2.975,2.9728,2.9753,2.9764,2.9771,2.9798,2.9853,2.9889,2.9939,3.0066,3.0071,3.0127,3.0146,3.0162,3.0176,3.0245,3.0271,3.0,3.0,3.0,0,0,2.9631,2.9642,2.968,2.9739,2.9756,2.9819,2.9729,2.9798,2.9845,2.9775,2.9867,2.9874,2.9902,3.0016,3.0066,3.0026,3.0252,3.0177,3.0189,3.0195,3.026,3.0285,3.0308,3.0008,3.0006,3.0005,0,0,2.9798,2.9811,2.9897,2.9916,2.9943,2.9934,2.9955,2.9971,2.9972,3.0064,3.0014,3.0069,3.0163,3.0186,3.021,3.0388,3.0347,3.0405,3.0507,3.0575,3.0596,3.0615,3.068,3.0703,3.0419,3.042,3.042,0,2.9887,2.9977,2.9946,3.002,3.0048,2.9987,3.0075,3.0095,3.0138,3.0159,3.0113,3.0231,3.0246,3.0365,3.0408,3.0429,3.0453,3.0403,3.0596,3.0614,3.0631,3.0693,3.0717,3.0427,3.0426,3.0425,3.0424,0,3.0086,3.015,3.0217,3.0259,3.0294,3.0375,3.0357,3.0397,3.0372,3.0368,3.0464,3.048,3.0533,3.0559,3.0535,3.0675,3.065,3.0601,3.052,3.0665,3.0722,3.0745,3.0437,3.0434,3.0432,3.043,0,0,3.0318,3.0343,3.0368,3.0387,3.0413,3.0462,3.0541,3.0592,3.0627,3.0659,3.0725,3.0807,3.0762,3.079,3.0768,3.0828,3.0969,3.0771,3.0772,3.0809,3.1126,3.1163,3.1191,3.0942,3.0946,3.095,3.1124,0,3.0485,3.0619,3.0594,3.0725,3.0785,3.0729,3.0797,3.0822,3.0821,3.0872,3.0871,3.093,3.0866,3.0882,3.0939,3.094,3.1033,3.0927,3.1005,3.1008,3.1,3.122,3.1259,3.1423,3.1146,3.115,3.1152,0,3.0697,3.0737,3.0874,3.0892,3.0916,3.0978,3.1024,3.1073,3.1101,3.1096,3.1127,3.1095,3.1175,3.1093,3.1203,3.1132,3.1162,3.1168,3.1174,3.118,3.1089,3.1234,3.1474,3.1499,3.1187,3.1184,3.1182,0,3.0854,3.0942,3.1035,3.1053,3.1076,3.1122,3.1134,3.1156,3.1189,3.1229,3.125,3.13,3.1328,3.1367,3.135,3.1292,3.1464,3.138,3.1464,3.1464,3.1503,3.1501,3.1752,3.1522,3.1521,3.1521,3.152,0,3.1043,3.113,3.1106,3.1164,3.126,3.1231,3.1327,3.1333,3.1354,3.1413,3.1367,3.1424,3.1397,3.1452,3.1439,3.1534,3.1546,3.1545,3.1541,3.155,3.155,3.157,3.1558,3.1527,3.1526,3.1524,3.1523,0,3.1235,3.1222,3.1321,3.1335,3.134,3.1411,3.1423,3.1478,3.1474,3.1549,3.1565,3.1559,3.1622,3.1608,3.1677,3.1669,3.1787,3.1768,3.1778,3.1774,3.1858,3.1851,3.2131,3.2167,3.1913,3.1915,3.1917,0,3.1356,3.1422,3.1443,3.1479,3.1494,3.1553,3.1586,3.1561,3.1598,3.1635,3.1686,3.1744,3.179,3.1893,3.1895,3.1948,3.1931,3.2026,3.1939,3.1946,3.1934,3.193,3.1937,3.2043,3.2046,3.2048,3.205,0,3.1575,3.1566,3.1615,3.1663,3.1704,3.1741,3.1774,3.1806,3.1784,3.1828,3.1891,3.1927,3.1997,3.2057,3.2106,3.2119,3.2083,3.2078,3.21,3.211,3.2113,3.2114,3.1826,3.2071,3.2069,3.2068,3.2067,3.2066,3.1736,3.1792,3.1816,3.1873,3.1895,3.1927,3.1979,3.1982,3.2034,3.2089,3.2071,3.2144,3.2171,3.2233,3.2253,3.231,3.2275,3.2307,3.2315,3.2323,3.2334,3.2104,3.2319,3.2318,3.2318,3.2317,3.2317,0,3.1952,3.1965,3.2018,3.2065,3.2111,3.2071,3.2106,3.2147,3.2211,3.2239,3.2285,3.2359,3.2416,3.2424,3.2478,3.2523,3.2508,3.2538,3.2535,3.2539,3.2362,3.2338,3.255,3.255,3.255,3.255,3.255,3.255,3.2071,3.2164,3.2158,3.2262,3.2274,3.2345,3.2368,3.2398,3.242,3.2504,3.2552,3.2556,3.2576,3.2633,3.2684,3.2685,3.2708,3.2746,3.274,3.2575,3.2551,3.2529,3.2506,3.2751,3.2751,3.2912,3.2914,3.2915]},{"header":{"parameterUnit":"m.s-1","parameterCategory":1,"la1":30.2991,"la2":30.254,"lo1":-89.0895,"lo2":-89.0444,"dy":0.0017,"dx":0.0017,"nx":28,"ny":28,"refTime":"2025-07-28T21:00:00:Z","depth":0,"parameterNumber":3,"parameterNumberName":"V-component_of_WINDS"},"data":[0,0,0,0,0,0,0,0,0,0,0,0,0,0,0,0,0,0,0,0,0,0,0,0,0,0,0,0,0,0,0,0,0,0,0,0,0,0,0,0,0,0,0,0,0,0,0,0,0,0,0,0,0,0,0,0,0,0,0.9408,0.941,0,0.9574,0.9576,0.9578,0.9591,0.959,0.9588,0.9586,0.9761,0.9767,0.9774,0,0,0,0,0,0,0,0,0,0,0,0,0,0.9104,0.911,0.9408,0.941,0.9412,0.9574,0.9576,0.9578,0.9592,0.9589,0.9587,0.9585,0.9759,0.9767,0.9774,0,0,0,0,0,0,0,0,0,0,0,0,0,0.925,0.9111,0.9407,0.9438,0.9442,0.9573,0.9576,0.9579,0.9592,0.9589,0.9587,0.9584,0.9757,0.9766,0.9775,0.9889,0,0,0.9804,0.9808,0,0,0,0,0,0,0,0,0.9242,0.9261,0.9431,0.9436,0.9441,0.9559,0.9533,0.9683,0.9593,0.9535,0.9586,0.9583,0.9696,0.9711,0.9748,0.9897,0.9904,0.9805,0.9811,0.9815,0.9818,0,0,0,0,0,0,0,0.9232,0.9254,0.9474,0.9434,0.944,0.9444,0.9462,0.9562,0.9629,0.954,0.9542,0.9561,0.9699,0.9739,0.9752,0.9907,0.9805,0.9813,0.9819,0.9823,1.0156,1.0159,0,0,0,0,0,0,0.9215,0.9245,0.9468,0.9479,0.9332,0.9452,0.9472,0.9524,0.9628,0.9641,0.9563,0.9561,0.9724,0.9741,0.9759,0.9898,0.9815,0.9824,0.9829,1.0153,1.0156,1.016,0,0,0,0,0,0,0.9209,0.9235,0.9462,0.9362,0.9392,0.946,0.9519,0.9529,0.9569,0.9645,0.9658,0.9592,0.9722,0.9745,0.9856,0.9904,0.9828,0.9837,1.0149,1.0154,1.0158,1.0177,0,0,0,0,0,0,0.92,0.9232,0.9276,0.9363,0.9397,0.9555,0.9522,0.9534,0.9585,0.9584,0.9676,0.9688,0.9722,0.9841,0.9865,0.9916,0.9844,1.0145,1.0151,1.0157,1.0173,1.0182,1.019,0,0,0,0,0,0.9189,0.9276,0.9278,0.9305,0.9452,0.9558,0.9577,0.9613,0.9589,0.9633,0.9682,0.9685,0.9894,0.9852,0.9879,0.9934,1.0142,1.0149,1.0156,1.0169,1.018,1.019,0,0,0,0,0,0,0.9195,0.9288,0.9291,0.9409,0.9475,0.956,0.9618,0.9624,0.97,0.9696,0.9739,0.9759,0.9868,0.9912,0.9864,1.0048,1.0016,1.0028,1.0016,1.0027,1.0036,1.0024,0.9852,0,0,0,0,0,0.9209,0.9286,0.9364,0.946,0.9493,0.9549,0.9597,0.9618,0.9689,0.9718,0.9775,0.9845,0.9926,0.9979,1.0058,1.0178,1.0198,1.0229,1.0237,1.0244,1.0255,1.0321,1.0335,1.0183,1.0183,1.0183,0,0,0.9241,0.9301,0.9348,0.9463,0.9517,0.9596,0.9573,0.9659,0.9718,0.9732,0.9839,0.9883,0.9963,1.0079,1.0132,1.0119,1.0301,1.0253,1.0258,1.0265,1.0329,1.0344,1.0357,1.0188,1.0187,1.0186,0,0,0.9339,0.9392,0.9478,0.9531,0.9612,0.9649,0.9669,0.9753,0.9782,0.989,0.9901,0.9973,1.0112,1.0169,1.0216,1.0332,1.0338,1.0357,1.0403,1.0467,1.0479,1.0489,1.0531,1.0545,1.0367,1.0367,1.0367,0,0.9369,0.9488,0.9521,0.9606,0.9656,0.9669,0.9756,0.9807,0.9911,0.9946,0.9928,1.0101,1.0157,1.0285,1.0313,1.0351,1.0376,1.0348,1.0474,1.0485,1.0496,1.0536,1.0551,1.0369,1.0369,1.0369,1.0368,0,0.952,0.9602,0.9662,0.9759,0.9816,0.9901,0.9948,1.0002,1.0018,1.0056,1.0165,1.0231,1.0324,1.0355,1.0373,1.0486,1.0475,1.0465,1.0433,1.0511,1.055,1.0566,1.0372,1.0371,1.037,1.037,0,0,0.9629,0.9741,0.9763,0.9806,0.9895,0.996,1.0046,1.0134,1.0179,1.0249,1.0322,1.0438,1.0429,1.0482,1.0506,1.0562,1.0649,1.0545,1.0548,1.0562,1.0778,1.0785,1.0802,1.0653,1.0656,1.0658,1.0771,0,0.9738,0.9889,0.9921,1.0053,1.0129,1.0141,1.0216,1.0278,1.0316,1.0387,1.0429,1.051,1.0492,1.0524,1.0579,1.0627,1.0693,1.0619,1.0722,1.0726,1.0703,1.0823,1.0831,1.0935,1.0786,1.0789,1.0791,0,0.9885,0.9956,1.0095,1.0172,1.0205,1.0272,1.0354,1.0421,1.0493,1.0516,1.0574,1.0591,1.0681,1.0643,1.0768,1.0716,1.076,1.0789,1.0794,1.0807,1.0764,1.0839,1.0969,1.0984,1.0815,1.0813,1.0811,0,0.9951,1.0082,1.0181,1.0218,1.031,1.0357,1.0398,1.0466,1.0516,1.0589,1.0622,1.0704,1.075,1.0813,1.0852,1.0821,1.0973,1.0939,1.0996,1.0995,1.1029,1.1026,1.1168,1.1055,1.1055,1.1054,1.1054,0,1.0069,1.0154,1.0211,1.0273,1.0367,1.0403,1.0496,1.0537,1.0597,1.0667,1.0682,1.0748,1.0794,1.0866,1.0897,1.0995,1.1015,1.1037,1.1045,1.1037,1.1034,1.1067,1.1061,1.1059,1.1058,1.1057,1.1056,0,1.016,1.0202,1.0311,1.0388,1.041,1.0476,1.0543,1.0603,1.0639,1.0727,1.075,1.0808,1.0894,1.0937,1.1045,1.1065,1.1176,1.1178,1.1151,1.1154,1.1209,1.1203,1.1378,1.1403,1.1272,1.1273,1.1274,0,1.0233,1.0298,1.0381,1.0428,1.047,1.0545,1.0596,1.0633,1.0685,1.077,1.082,1.0905,1.0976,1.1112,1.1164,1.1245,1.1251,1.1306,1.1264,1.1253,1.1252,1.1248,1.1255,1.1314,1.1316,1.1317,1.1317,0,1.0359,1.0376,1.0447,1.0526,1.0586,1.065,1.0714,1.0751,1.0798,1.0856,1.0943,1.0997,1.1105,1.119,1.1275,1.1318,1.1326,1.133,1.1348,1.1341,1.1322,1.1333,1.1173,1.1327,1.1326,1.1325,1.1324,1.1324,1.0443,1.0501,1.0568,1.0647,1.0698,1.0757,1.0816,1.0859,1.0931,1.1021,1.1038,1.113,1.1198,1.1313,1.1358,1.143,1.1419,1.1444,1.1451,1.1457,1.1459,1.1309,1.1446,1.1445,1.1445,1.1445,1.1445,0,1.057,1.0613,1.0685,1.0772,1.0835,1.0834,1.0904,1.0956,1.1036,1.1098,1.1166,1.1265,1.1347,1.1404,1.1487,1.1534,1.154,1.1555,1.1553,1.1562,1.1465,1.1441,1.1549,1.1549,1.1549,1.1549,1.1549,1.1549,1.0643,1.0741,1.0765,1.0888,1.0931,1.1019,1.1059,1.1113,1.1162,1.1271,1.1338,1.1374,1.1435,1.1522,1.1597,1.1612,1.1642,1.1657,1.1672,1.158,1.1569,1.1559,1.1537,1.1663,1.1663,1.1764,1.1765,1.1765]}]]